EW9561 Weather Reports


Display with metric or nautical units.
time (UTC)temp
F
wind
direction
speed
MPH
gust
MPH
rain 1hr
in
rain 24hr
in
rain mn
in
humidity
%
barometer
mb
20260906183028 75 172 2.0 7.0 0.00 0.00 0.00 63 1020.6
20260906181525 75 158 2.0 6.0 0.00 0.00 0.00 61 1020.6
20260906180028 75 172 3.0 6.0 0.00 0.00 0.00 60 1020.8
20260906174509 75 141 2.0 7.0 0.00 0.00 0.00 61 1020.8
20260906173012 75 129 3.0 6.0 0.00 0.00 0.00 62 1020.9
20260906171518 75 148 3.0 6.0 0.00 0.00 0.00 59 1021.0
20260906170025 74 172 2.0 5.0 0.00 0.00 0.00 59 1021.2
20260906164503 74 163 1.0 6.0 0.00 0.00 0.00 63 1021.2
20260906163017 73 148 3.0 6.0 0.00 0.00 0.00 63 1021.3
20260906161516 73 150 2.0 6.0 0.00 0.00 0.00 67 1021.2
20260906160024 73 149 3.0 7.0 0.00 0.00 0.00 63 1021.1
20260906154529 72 149 2.0 6.0 0.00 0.00 0.00 65 1021.1
20260906153013 72 140 2.0 7.0 0.00 0.00 0.00 68 1021.1
20260906151510 71 195 3.0 5.0 0.00 0.00 0.00 67 1021.2
20260906150019 71 151 2.0 6.0 0.00 0.00 0.00 69 1021.0
20260906144526 72 145 2.0 5.0 0.00 0.00 0.00 70 1021.3
20260906143027 70 152 2.0 7.0 0.00 0.00 0.00 73 1021.3
20260906141521 68 287 0.0 4.0 0.00 0.00 0.00 78 1021.3
20260906140032 66 287 0.0 3.0 0.00 0.00 0.00 82 1021.3
20260906134527 63 288 0.0 3.0 0.00 0.00 0.00 87 1021.3
20260906133030 61 284 1.0 4.0 0.00 0.00 0.00 89 1021.2
20260906131533 58 319 1.0 3.0 0.00 0.00 0.00 91 1021.1
20260906130034 57 319 1.0 3.0 0.00 0.00 0.00 92 1021.0
20260906124519 56 319 1.0 3.0 0.00 0.00 0.00 93 1020.8
20260906123035 54 319 1.0 4.0 0.00 0.00 0.00 93 1020.8
20260906121533 53 295 1.0 4.0 0.00 0.01 0.00 93 1020.6
20260906120013 53 296 1.0 3.0 0.00 0.01 0.00 93 1020.7
20260906114521 52 297 1.0 3.0 0.00 0.01 0.00 93 1020.6
20260906113025 53 297 0.0 3.0 0.00 0.01 0.00 93 1020.4
20260906111532 53 297 0.0 3.0 0.00 0.01 0.00 93 1020.3
20260906110006 53 297 0.0 4.0 0.00 0.01 0.00 93 1020.3
20260906104518 53 303 0.0 3.0 0.00 0.01 0.00 93 1020.1
20260906103040 53 301 1.0 3.0 0.00 0.01 0.00 93 1020.1
20260906101527 53 302 1.0 4.0 0.00 0.01 0.00 93 1020.1
20260906100019 54 304 0.0 4.0 0.00 0.01 0.00 93 1020.2
20260906094511 54 281 1.0 5.0 0.00 0.01 0.00 93 1020.0
20260906093021 54 298 1.0 4.0 0.00 0.01 0.00 93 1019.8
20260906091528 54 316 1.0 4.0 0.00 0.01 0.00 93 1020.0
20260906090033 54 300 0.0 3.0 0.00 0.01 0.00 93 1019.8
20260906084510 54 296 0.0 2.0 0.00 0.01 0.00 93 1019.8
20260906083016 54 296 0.0 2.0 0.00 0.01 0.00 93 1019.9
20260906081525 54 296 1.0 3.0 0.00 0.01 0.00 93 1020.0
20260906080029 55 296 2.0 4.0 0.00 0.01 0.00 93 1019.9
20260906074533 55 287 1.0 3.0 0.00 0.01 0.00 93 1020.0
20260906073011 55 287 0.0 3.0 0.00 0.01 0.00 93 1020.1
20260906071519 55 287 0.0 3.0 0.00 0.01 0.00 93 1020.2
20260906070027 55 287 0.0 3.0 0.00 0.01 0.00 93 1020.3
20260906064534 55 288 1.0 3.0 0.00 0.01 0.00 93 1020.3
20260906063032 55 281 1.0 3.0 0.00 0.01 0.00 93 1020.2
20260906061523 55 281 1.0 3.0 0.00 0.01 0.00 93 1020.2
20260906060021 55 281 1.0 3.0 0.00 0.01 0.00 93 1020.1
20260906054535 55 281 1.0 4.0 0.00 0.01 0.00 93 1019.9
20260906053030 55 281 1.0 3.0 0.00 0.01 0.00 93 1020.0
20260906051532 56 281 1.0 4.0 0.00 0.01 0.00 92 1020.0
20260906050019 56 54 1.0 4.0 0.00 0.01 0.00 92 1020.0
20260906044523 56 61 1.0 4.0 0.00 0.01 0.01 92 1020.1
20260906043028 56 61 0.0 3.0 0.00 0.01 0.01 92 1019.9
20260906041533 56 61 1.0 2.0 0.00 0.01 0.01 92 1019.9
20260906040033 57 61 1.0 3.0 0.00 0.01 0.01 92 1019.8
20260906034520 57 61 1.0 3.0 0.00 0.01 0.01 92 1019.4
20260906033030 57 61 1.0 2.0 0.00 0.01 0.01 92 1019.2
20260906031530 57 61 1.0 3.0 0.00 0.01 0.01 92 1019.4
20260906030033 57 64 1.0 3.0 0.00 0.01 0.01 92 1019.3
20260906024533 57 65 1.0 3.0 0.00 0.01 0.01 92 1019.4
20260906023028 57 65 1.0 3.0 0.00 0.01 0.01 92 1019.3
20260906021540 57 65 1.0 3.0 0.00 0.01 0.01 91 1019.3
20260906020034 58 72 1.0 4.0 0.00 0.01 0.01 91 1019.2
20260906014537 58 75 1.0 3.0 0.00 0.01 0.01 90 1019.1
20260906013034 58 75 0.0 2.0 0.00 0.01 0.01 90 1019.0
20260906011532 59 75 1.0 3.0 0.00 0.01 0.01 90 1018.9
20260906010008 60 75 1.0 2.0 0.00 0.01 0.01 89 1018.9
20260906004510 61 75 0.0 2.0 0.00 0.01 0.01 88 1019.0
20260906003021 62 75 1.0 2.0 0.00 0.01 0.01 87 1018.9
20260906001520 64 75 0.0 2.0 0.00 0.01 0.01 84 1018.8
20260906000004 65 75 1.0 2.0 0.00 0.01 0.01 83 1018.9
20260905234507 67 75 0.0 0.0 0.00 0.01 0.01 81 1018.8
20260905233017 68 75 0.0 0.0 0.00 0.01 0.01 78 1019.1
20260905231519 70 75 0.0 1.0 0.00 0.01 0.01 72 1019.2
20260905230026 72 75 1.0 2.0 0.00 0.01 0.01 68 1019.3
20260905224510 73 75 1.0 2.0 0.00 0.01 0.01 68 1019.2
20260905223012 73 74 1.0 4.0 0.00 0.01 0.01 61 1019.2
20260905221517 73 141 1.0 4.0 0.00 0.01 0.01 61 1019.3
20260905220023 74 141 1.0 4.0 0.00 0.01 0.01 59 1019.3
20260905214530 74 141 1.0 5.0 0.00 0.01 0.01 62 1019.3
20260905213007 74 119 1.0 3.0 0.00 0.01 0.01 60 1019.3
20260905211513 74 119 1.0 5.0 0.00 0.01 0.01 61 1019.2
20260905210019 72 143 1.0 4.0 0.00 0.01 0.01 62 1019.2
20260905204526 72 152 2.0 4.0 0.00 0.01 0.01 66 1019.5
20260905203029 73 103 2.0 6.0 0.00 0.01 0.01 68 1019.4
20260905201514 73 151 1.0 5.0 0.00 0.01 0.01 67 1019.8
20260905200024 73 157 2.0 5.0 0.00 0.01 0.01 66 1019.8
20260905194523 72 112 1.0 4.0 0.00 0.01 0.01 68 1019.8
20260905193030 72 108 2.0 5.0 0.00 0.01 0.01 68 1020.0
20260905191508 73 156 2.0 5.0 0.00 0.01 0.01 69 1020.0
20260905190016 74 154 2.0 5.0 0.00 0.01 0.01 63 1020.0
20260905184522 73 127 2.0 5.0 0.00 0.01 0.01 66 1020.0